| time (UTC) | temp F | wind direction | speed MPH | gust MPH | rain 1hr in | rain 24hr in | rain mn in | humidity % | barometer mb |
| 20260503221706 | 72 | 279 | 6.0 | 15.0 | 0.00 | 0.00 | 0.00 | 55 | 1009.3 |
| 20260503221207 | 72 | 291 | 6.0 | 15.0 | 0.00 | 0.00 | 0.00 | 55 | 1009.3 |
| 20260503220706 | 72 | 238 | 6.0 | 15.0 | 0.00 | 0.00 | 0.00 | 55 | 1009.3 |
| 20260503220206 | 72 | 304 | 6.0 | 15.0 | 0.00 | 0.00 | 0.00 | 53 | 1009.3 |
| 20260503215706 | 73 | 286 | 6.0 | 12.0 | 0.00 | 0.00 | 0.00 | 52 | 1009.4 |
| 20260503215206 | 73 | 279 | 5.0 | 12.0 | 0.00 | 0.00 | 0.00 | 53 | 1009.4 |
| 20260503214707 | 72 | 294 | 6.0 | 13.0 | 0.00 | 0.00 | 0.00 | 54 | 1009.5 |
| 20260503214207 | 73 | 276 | 6.0 | 13.0 | 0.00 | 0.00 | 0.00 | 52 | 1009.5 |
| 20260503213706 | 73 | 266 | 6.0 | 13.0 | 0.00 | 0.00 | 0.00 | 52 | 1009.5 |
| 20260503213207 | 73 | 263 | 6.0 | 13.0 | 0.00 | 0.00 | 0.00 | 52 | 1009.6 |
| 20260503212705 | 73 | 274 | 6.0 | 13.0 | 0.00 | 0.00 | 0.00 | 51 | 1009.6 |
| 20260503212200 | 74 | 276 | 5.0 | 12.0 | 0.00 | 0.00 | 0.00 | 50 | 1009.6 |
| 20260503211146 | 74 | 275 | 6.0 | 12.0 | 0.00 | 0.00 | 0.00 | 50 | 1009.6 |
| 20260503210640 | 74 | 290 | 6.0 | 12.0 | 0.00 | 0.00 | 0.00 | 49 | 1009.7 |
| 20260503210133 | 75 | 211 | 5.0 | 12.0 | 0.00 | 0.00 | 0.00 | 47 | 1009.6 |
| 20260503205628 | 75 | 272 | 5.0 | 12.0 | 0.00 | 0.00 | 0.00 | 48 | 1009.7 |
| 20260503205122 | 75 | 292 | 6.0 | 12.0 | 0.00 | 0.00 | 0.00 | 49 | 1009.7 |
| 20260503204117 | 76 | 287 | 4.0 | 12.0 | 0.00 | 0.00 | 0.00 | 47 | 1009.8 |
| 20260503203616 | 76 | 286 | 4.0 | 10.0 | 0.00 | 0.00 | 0.00 | 49 | 1009.9 |
| 20260503203117 | 75 | 251 | 4.0 | 10.0 | 0.00 | 0.00 | 0.00 | 50 | 1009.9 |
| 20260503202616 | 75 | 240 | 4.0 | 11.0 | 0.00 | 0.00 | 0.00 | 51 | 1010.0 |
| 20260503202117 | 74 | 294 | 4.0 | 11.0 | 0.00 | 0.00 | 0.00 | 50 | 1010.0 |
| 20260503201115 | 74 | 269 | 4.0 | 11.0 | 0.00 | 0.00 | 0.00 | 51 | 1010.1 |
| 20260503200612 | 74 | 286 | 4.0 | 10.0 | 0.00 | 0.00 | 0.00 | 52 | 1010.2 |
| 20260503200112 | 74 | 243 | 5.0 | 10.0 | 0.00 | 0.00 | 0.00 | 52 | 1010.3 |
| 20260503195613 | 75 | 234 | 4.0 | 9.0 | 0.00 | 0.00 | 0.00 | 50 | 1010.3 |
| 20260503194612 | 75 | 279 | 5.0 | 10.0 | 0.00 | 0.00 | 0.00 | 51 | 1010.4 |
| 20260503194118 | 75 | 253 | 4.0 | 10.0 | 0.00 | 0.00 | 0.00 | 50 | 1010.4 |
| 20260503193617 | 76 | 292 | 3.0 | 7.0 | 0.00 | 0.00 | 0.00 | 51 | 1010.3 |
| 20260503193111 | 76 | 286 | 3.0 | 7.0 | 0.00 | 0.00 | 0.00 | 50 | 1010.4 |
| 20260503192109 | 76 | 284 | 3.0 | 7.0 | 0.00 | 0.00 | 0.00 | 52 | 1010.5 |
| 20260503191603 | 76 | 281 | 3.0 | 7.0 | 0.00 | 0.00 | 0.00 | 52 | 1010.5 |
| 20260503191058 | 78 | 279 | 3.0 | 7.0 | 0.00 | 0.00 | 0.00 | 48 | 1010.6 |
| 20260503190551 | 78 | 259 | 2.0 | 7.0 | 0.00 | 0.00 | 0.00 | 51 | 1010.6 |
| 20260503190045 | 78 | 235 | 1.0 | 4.0 | 0.00 | 0.00 | 0.00 | 49 | 1010.6 |
| 20260503185539 | 78 | 257 | 1.0 | 4.0 | 0.00 | 0.00 | 0.00 | 52 | 1010.6 |
| 20260503185034 | 78 | 141 | 2.0 | 6.0 | 0.00 | 0.00 | 0.00 | 56 | 1010.6 |
| 20260503184527 | 78 | 131 | 3.0 | 6.0 | 0.00 | 0.00 | 0.00 | 55 | 1010.7 |
| 20260503184022 | 78 | 130 | 3.0 | 6.0 | 0.00 | 0.00 | 0.00 | 54 | 1010.7 |
| 20260503182505 | 77 | 98 | 3.0 | 8.0 | 0.00 | 0.00 | 0.00 | 57 | 1010.8 |
| 20260503181958 | 76 | 102 | 3.0 | 7.0 | 0.00 | 0.00 | 0.00 | 52 | 1010.9 |
| 20260503181451 | 76 | 123 | 3.0 | 7.0 | 0.00 | 0.00 | 0.00 | 53 | 1010.9 |
| 20260503175934 | 76 | 119 | 3.0 | 7.0 | 0.00 | 0.00 | 0.00 | 54 | 1011.0 |
| 20260503175427 | 76 | 50 | 3.0 | 7.0 | 0.00 | 0.00 | 0.00 | 59 | 1011.1 |
| 20260503174922 | 76 | 92 | 3.0 | 8.0 | 0.00 | 0.00 | 0.00 | 56 | 1011.1 |
| 20260503173909 | 74 | 112 | 4.0 | 9.0 | 0.00 | 0.00 | 0.00 | 56 | 1011.1 |
| 20260503173403 | 74 | 92 | 3.0 | 10.0 | 0.00 | 0.00 | 0.00 | 61 | 1011.1 |
| 20260503172352 | 73 | 73 | 4.0 | 8.0 | 0.00 | 0.00 | 0.00 | 61 | 1011.2 |
| 20260503171845 | 73 | 65 | 4.0 | 8.0 | 0.00 | 0.00 | 0.00 | 61 | 1011.2 |
| 20260503171339 | 72 | 100 | 4.0 | 9.0 | 0.00 | 0.00 | 0.00 | 62 | 1011.2 |
| 20260503170833 | 72 | 71 | 4.0 | 9.0 | 0.00 | 0.00 | 0.00 | 63 | 1011.2 |
| 20260503170327 | 71 | 92 | 4.0 | 9.0 | 0.00 | 0.00 | 0.00 | 65 | 1011.1 |
| 20260503160216 | 67 | 78 | 4.0 | 9.0 | 0.00 | 0.00 | 0.00 | 68 | 1011.5 |
| 20260503150634 | 58 | 75 | 2.0 | 6.0 | 0.00 | 0.00 | 0.00 | 90 | 1011.7 |
| 20260503140128 | 53 | 5 | 1.0 | 3.0 | 0.00 | 0.00 | 0.00 | 91 | 1011.3 |
| 20260503090209 | 53 | 76 | 3.0 | 4.0 | 0.00 | 0.00 | 0.00 | 90 | 1012.0 |
| 20260503081615 | 52 | 101 | 1.0 | 3.0 | 0.00 | 0.00 | 0.00 | 90 | 1012.2 |
| 20260503081108 | 52 | 88 | 1.0 | 3.0 | 0.00 | 0.00 | 0.00 | 90 | 1012.2 |
| 20260503080603 | 52 | 112 | 1.0 | 3.0 | 0.00 | 0.00 | 0.00 | 90 | 1012.1 |
| 20260503072516 | 53 | 84 | 1.0 | 3.0 | 0.00 | 0.00 | 0.00 | 90 | 1012.2 |
| 20260503072008 | 52 | 96 | 1.0 | 3.0 | 0.00 | 0.00 | 0.00 | 90 | 1012.1 |
| 20260503071503 | 52 | 110 | 2.0 | 3.0 | 0.00 | 0.00 | 0.00 | 90 | 1012.2 |
| 20260503070957 | 52 | 74 | 1.0 | 3.0 | 0.00 | 0.00 | 0.00 | 90 | 1012.2 |
| 20260503070451 | 52 | 114 | 0.0 | 3.0 | 0.00 | 0.00 | 0.00 | 90 | 1012.2 |
| 20260503060340 | 51 | 15 | 0.0 | 0.0 | 0.00 | 0.00 | 0.00 | 90 | 1012.3 |
| 20260503054822 | 51 | 15 | 0.0 | 2.0 | 0.00 | 0.00 | 0.00 | 90 | 1012.4 |
| 20260503053810 | 51 | 15 | 0.0 | 0.0 | 0.00 | 0.00 | 0.00 | 90 | 1012.3 |
| 20260503053304 | 51 | 15 | 0.0 | 2.0 | 0.00 | 0.00 | 0.00 | 90 | 1012.3 |
| 20260503052757 | 51 | 15 | 1.0 | 3.0 | 0.00 | 0.00 | 0.00 | 90 | 1012.4 |
| 20260503052251 | 51 | 348 | 1.0 | 3.0 | 0.00 | 0.00 | 0.00 | 89 | 1012.4 |
| 20260503051745 | 51 | 348 | 1.0 | 3.0 | 0.00 | 0.00 | 0.00 | 89 | 1012.4 |
| 20260503051240 | 51 | 0 | 1.0 | 3.0 | 0.00 | 0.00 | 0.00 | 89 | 1012.3 |
| 20260503050733 | 51 | 292 | 1.0 | 4.0 | 0.00 | 0.00 | 0.00 | 89 | 1012.3 |
| 20260503045722 | 51 | 239 | 1.0 | 2.0 | 0.00 | 0.00 | 0.00 | 89 | 1012.2 |
| 20260503045215 | 51 | 321 | 0.0 | 2.0 | 0.00 | 0.00 | 0.00 | 89 | 1012.1 |
| 20260503044216 | 51 | 322 | 0.0 | 2.0 | 0.00 | 0.00 | 0.00 | 89 | 1012.1 |
| 20260503043716 | 51 | 322 | 0.0 | 2.0 | 0.00 | 0.00 | 0.00 | 89 | 1012.1 |
| 20260503042214 | 51 | 355 | 1.0 | 3.0 | 0.00 | 0.00 | 0.00 | 89 | 1012.0 |
| 20260503041712 | 51 | 269 | 1.0 | 7.0 | 0.00 | 0.00 | 0.00 | 89 | 1011.9 |
| 20260503041210 | 51 | 346 | 2.0 | 7.0 | 0.00 | 0.00 | 0.00 | 89 | 1011.9 |
| 20260503040707 | 51 | 275 | 3.0 | 7.0 | 0.00 | 0.00 | 0.00 | 89 | 1011.8 |
| 20260503040207 | 51 | 246 | 4.0 | 8.0 | 0.00 | 0.00 | 0.00 | 89 | 1011.8 |
| 20260503035708 | 51 | 255 | 4.0 | 8.0 | 0.00 | 0.00 | 0.00 | 89 | 1011.8 |
| 20260503035208 | 51 | 290 | 3.0 | 7.0 | 0.00 | 0.00 | 0.00 | 89 | 1011.7 |
| 20260503034707 | 52 | 303 | 3.0 | 7.0 | 0.00 | 0.00 | 0.00 | 89 | 1011.8 |
| 20260503034208 | 52 | 236 | 2.0 | 8.0 | 0.00 | 0.00 | 0.00 | 89 | 1011.7 |
| 20260503033703 | 52 | 240 | 1.0 | 8.0 | 0.00 | 0.00 | 0.00 | 89 | 1011.6 |
| 20260503033204 | 52 | 254 | 2.0 | 8.0 | 0.00 | 0.00 | 0.00 | 89 | 1011.5 |
| 20260503032703 | 52 | 283 | 3.0 | 8.0 | 0.00 | 0.00 | 0.00 | 88 | 1011.4 |
| 20260503031704 | 52 | 271 | 3.0 | 10.0 | 0.00 | 0.00 | 0.00 | 88 | 1011.6 |
| 20260503030704 | 52 | 250 | 3.0 | 10.0 | 0.00 | 0.00 | 0.00 | 88 | 1011.5 |
| 20260503030204 | 52 | 336 | 4.0 | 10.0 | 0.00 | 0.00 | 0.00 | 88 | 1011.5 |
| 20260503025202 | 52 | 270 | 3.0 | 9.0 | 0.00 | 0.00 | 0.00 | 88 | 1011.5 |
| 20260503024702 | 52 | 277 | 3.0 | 9.0 | 0.00 | 0.00 | 0.00 | 88 | 1011.5 |
| 20260503024202 | 52 | 248 | 3.0 | 9.0 | 0.00 | 0.00 | 0.00 | 88 | 1011.4 |
| 20260503023201 | 52 | 273 | 4.0 | 10.0 | 0.00 | 0.00 | 0.00 | 87 | 1011.5 |
| 20260503022701 | 52 | 236 | 5.0 | 12.0 | 0.00 | 0.00 | 0.00 | 87 | 1011.5 |
| 20260503022201 | 52 | 280 | 5.0 | 12.0 | 0.00 | 0.00 | 0.00 | 87 | 1011.4 |
| 20260503020701 | 53 | 350 | 5.0 | 12.0 | 0.00 | 0.00 | 0.00 | 87 | 1011.3 |
| 20260503020159 | 53 | 309 | 3.0 | 12.0 | 0.00 | 0.00 | 0.00 | 87 | 1011.3 |
| 20260503014647 | 53 | 101 | 5.0 | 12.0 | 0.00 | 0.00 | 0.00 | 86 | 1011.5 |
| 20260503014141 | 53 | 286 | 4.0 | 12.0 | 0.00 | 0.00 | 0.00 | 86 | 1011.5 |
| 20260503013637 | 53 | 280 | 3.0 | 10.0 | 0.00 | 0.00 | 0.00 | 86 | 1011.5 |
| 20260503013129 | 53 | 223 | 3.0 | 8.0 | 0.00 | 0.00 | 0.00 | 86 | 1011.5 |
| 20260503012623 | 53 | 279 | 4.0 | 13.0 | 0.00 | 0.00 | 0.00 | 86 | 1011.5 |
| 20260503012117 | 53 | 275 | 5.0 | 15.0 | 0.00 | 0.00 | 0.00 | 85 | 1011.5 |
| 20260503011610 | 53 | 282 | 6.0 | 15.0 | 0.00 | 0.00 | 0.00 | 85 | 1011.6 |
| 20260503011105 | 53 | 290 | 6.0 | 14.0 | 0.00 | 0.00 | 0.00 | 85 | 1011.7 |
| 20260503010559 | 54 | 271 | 5.0 | 10.0 | 0.00 | 0.00 | 0.00 | 85 | 1011.7 |
| 20260503010052 | 54 | 267 | 5.0 | 11.0 | 0.00 | 0.00 | 0.00 | 85 | 1011.8 |
| 20260503005041 | 54 | 299 | 4.0 | 11.0 | 0.00 | 0.00 | 0.00 | 84 | 1011.9 |
| 20260503004534 | 54 | 338 | 5.0 | 12.0 | 0.00 | 0.00 | 0.00 | 83 | 1011.9 |
| 20260503003523 | 55 | 253 | 5.0 | 14.0 | 0.00 | 0.00 | 0.00 | 82 | 1011.8 |
| 20260503003016 | 55 | 339 | 5.0 | 11.0 | 0.00 | 0.00 | 0.00 | 82 | 1011.9 |
| 20260503002510 | 56 | 277 | 5.0 | 12.0 | 0.00 | 0.00 | 0.00 | 82 | 1011.8 |
| 20260503001459 | 56 | 355 | 5.0 | 11.0 | 0.00 | 0.00 | 0.00 | 81 | 1011.8 |
| 20260503000953 | 56 | 273 | 4.0 | 13.0 | 0.00 | 0.00 | 0.00 | 80 | 1011.8 |
| 20260503000447 | 57 | 242 | 4.0 | 13.0 | 0.00 | 0.00 | 0.00 | 80 | 1011.9 |
| 20260502235941 | 57 | 301 | 4.0 | 13.0 | 0.00 | 0.00 | 0.00 | 81 | 1012.0 |
| 20260502235435 | 57 | 235 | 6.0 | 14.0 | 0.00 | 0.00 | 0.00 | 80 | 1012.0 |
| 20260502234929 | 57 | 260 | 5.0 | 14.0 | 0.00 | 0.00 | 0.00 | 79 | 1012.1 |
| 20260502234423 | 58 | 255 | 4.0 | 12.0 | 0.00 | 0.00 | 0.00 | 80 | 1012.2 |
| 20260502233917 | 57 | 253 | 5.0 | 15.0 | 0.00 | 0.00 | 0.00 | 80 | 1012.3 |
| 20260502233411 | 57 | 271 | 6.0 | 15.0 | 0.00 | 0.00 | 0.00 | 79 | 1012.3 |
| 20260502232904 | 57 | 261 | 6.0 | 13.0 | 0.00 | 0.00 | 0.00 | 79 | 1012.3 |
| 20260502232358 | 58 | 259 | 6.0 | 15.0 | 0.00 | 0.00 | 0.00 | 79 | 1012.4 |
| 20260502231853 | 58 | 285 | 5.0 | 16.0 | 0.00 | 0.00 | 0.00 | 79 | 1012.4 |
| 20260502231346 | 58 | 298 | 4.0 | 16.0 | 0.00 | 0.00 | 0.00 | 79 | 1012.5 |
| 20260502230841 | 58 | 282 | 6.0 | 16.0 | 0.00 | 0.00 | 0.00 | 80 | 1012.6 |
| 20260502230334 | 57 | 260 | 8.0 | 16.0 | 0.00 | 0.00 | 0.00 | 80 | 1012.6 |
| 20260502225829 | 57 | 247 | 7.0 | 16.0 | 0.00 | 0.00 | 0.00 | 79 | 1012.6 |
| 20260502225322 | 58 | 286 | 7.0 | 14.0 | 0.00 | 0.00 | 0.00 | 79 | 1012.8 |
| 20260502224816 | 58 | 292 | 7.0 | 16.0 | 0.00 | 0.00 | 0.00 | 78 | 1012.9 |
| 20260502223805 | 58 | 212 | 6.0 | 16.0 | 0.00 | 0.00 | 0.00 | 78 | 1013.1 |
| 20260502223259 | 58 | 246 | 7.0 | 14.0 | 0.00 | 0.00 | 0.00 | 77 | 1013.2 |
| 20260502221741 | 59 | 273 | 6.0 | 13.0 | 0.00 | 0.00 | 0.00 | 79 | 1013.4 |